Regional Weather Roundup
Issued by NWS Cleveland, OH

Home | Current Version | Previous Version | Text Only | Print | Product List | Glossary Off
Versions: 1 2 3 4 5 6 7 8 9 10 11 12 13 14 15 16 17 18 19 20 21 22 23 24 25 26 27 28 29 30 31 32 33 34 35 36 37 38 39 40 41 42 43 44 45 46 47 48 49 50

000
ASUS41 KCLE 060410
RWRCLE
OHIO REGIONAL WEATHER ROUNDUP
NATIONAL WEATHER SERVICE WILMINGTON, OH
1200 AM EDT MON JUL 06 2015

NOTE: "FAIR" INDICATES FEW OR NO CLOUDS BELOW 12,000 FEET WITH NO
SIGNIFICANT WEATHER AND/OR OBSTRUCTIONS TO VISIBILITY.

OHZ001>008-015>018-024>027-034-035-043-044-060500-
   NORTHWEST OHIO

CITY           SKY/WX    TMP DP  RH WIND       PRES   REMARKS
DEFIANCE       CLEAR     66  61  84 MISG      30.08S
FINDLAY        MOCLDY    67  61  81 SE5       30.08R
TOLEDO EXPRESS PTCLDY    63  57  81 CALM      30.09R
TOLEDO EXEC    PTCLDY    67  59  75 CALM      30.09R
LIMA           PTCLDY    64  60  87 S5        30.09S
$$

OHZ009>014-019>023-028>033-038-089-060500-
   NORTHEAST OHIO

CITY           SKY/WX    TMP DP  RH WIND       PRES   REMARKS
CLE-HOPKINS    MOCLDY    65  62  90 SE5       30.10F
CLE-LAKEFRONT  MOCLDY    71  62  73 E6        30.07F
CUY CO. ARPT   NOT AVBL
LORAIN-ELYRIA  MOCLDY    63  60  90 CALM      30.09F
ASHTABULA      PTCLDY    61  59  93 CALM      30.11F FOG
AKRON-CANTON   MOCLDY    70  56  61 E7        30.10S
WOOSTER        MOCLDY    63  61  93 CALM      30.11S
MANSFIELD      MOCLDY    65  60  84 CALM      30.10F
YOUNGSTOWN     CLOUDY    61  57  87 E6        30.11F
$$

OHZ042-051>053-060>062-070>072-077>081-060500-
  SOUTHWEST OHIO

CITY           SKY/WX    TMP DP  RH WIND       PRES   REMARKS
CINC-COVINGTON MOCLDY    65  62  90 CALM      30.10R
CINC-LUNKEN    CLOUDY    67  65  93 CALM      30.09R
HAMILTON       MOCLDY    65  64  97 CALM      30.10R
DAYTON         MOCLDY    69  62  78 CALM      30.10R
WRIGHT-PAT AFB MOCLDY    66  64  94 CALM      30.08F
DAYTON GENERAL CLOUDY    67  62  84 CALM      30.09R
WILMINGTON     MOCLDY    69  62  78 E3        30.09S
$$

OHZ036-037-039>041-045>050-054>059-063>069-073>076-082>088-060500-
  CENTRAL AND SOUTHEAST OHIO

CITY           SKY/WX    TMP DP  RH WIND       PRES   REMARKS
COLUMBUS       CLOUDY    69  63  81 N3        30.08S
OSU AIRPORT    CLEAR     68  62  81 CALM      30.08F
BOLTON FIELD   PTCLDY    64  63  96 CALM      30.09S
RICKENBACK AFB PTCLDY    69  63  80 N3        30.07F
NEWARK         PTCLDY    66  63  90 CALM      30.08S
MARION         MOCLDY    64  61  90 CALM      30.09F
LANCASTER      PTCLDY    66  63  90 CALM      30.08F FOG
ZANESVILLE     MOCLDY    70  63  78 CALM      30.08S
NEW PHILLY     MOCLDY    66  64  93 CALM      30.09S
$$



USA.gov is the U.S. government's official web portal to all federal, state and local government web resources and services.